GSLV R/B

Last updated on Sat Aug 15 2026 00:02:08 GMT+0000 (Coordinated Universal Time)

1 54149U 22138AN 26226.39193635 .00000871 00000+0 72029-4 0 9995 2 54149 87.3788 113.4333 0019010 302.1671 57.7716 14.97493395207528
UTC large
Height (km)
Speed (km/s)
/
Latitude / Longitude
Inclination (degrees)
Orbital Period (minutes)
Azimuth
Elevation
Range (km)
Doppler Factor

Next 0 passes for location: London (51.5072 / 0.1276)

No passes found over London.
GSLV R/B